User: anonymous   Login
Location: Gro�sch�nbrunn
(49.5760°N, 11.8868°E)
Time: 01:31:52
(UTC+00:00)
Language:

Meteor 1-24 Rocket - Orbit

View from above orbital plane
View from above orbital plane
View from above satellite
View from above satellite

Ground track
Ground track

The orbit data is extracted from the following two-line orbital elements,

1 08800U 76032B   20338.19941547 -.00000029  00000-0 -22381-4 0  9993
2 08800  81.2524  66.6267 0093976 202.9406 156.7556 14.10151932296267
Epoch (UTC): 03 December 2020 04:47:09
Eccentricity: 0.0093976
inclination: 81.2524°
perigee height: 791 km
apogee height: 927 km
right ascension of ascending node: 66.6267°
argument of perigee: 202.9406°
revolutions per day: 14.10151932
mean anomaly at epoch: 156.7556°
orbit number at epoch: 29626

The dashed part of the orbit path shows where the satellite is in the earth's shadow,  

DLR